www.pogodaiklimat.ru
Время
(UTC), дата
04 7.08
05 7.08
06 7.08
07 7.08
08 7.08
09 7.08
10 7.08
11 7.08
12 7.08
13 7.08
14 7.08
15 7.08
16 7.08
17 7.08
18 7.08
19 7.08
20 7.08
21 7.08
22 7.08
23 7.08
00 8.08
01 8.08
02 8.08
03 8.08
04 8.08
05 8.08
06 8.08
07 8.08
08 8.08
09 8.08
10 8.08
11 8.08
12 8.08
13 8.08
14 8.08
15 8.08
16 8.08
17 8.08
18 8.08
19 8.08
20 8.08
21 8.08
22 8.08
23 8.08
00 9.08
01 9.08
02 9.08
03 9.08
04 9.08
05 9.08
06 9.08
07 9.08
08 9.08
09 9.08
10 9.08
11 9.08
12 9.08
13 9.08
14 9.08
15 9.08
16 9.08
17 9.08
18 9.08
19 9.08
20 9.08
21 9.08
22 9.08
23 9.08
00 10.08
01 10.08
02 10.08
03 10.08
04 10.08
05 10.08
06 10.08
07 10.08
08 10.08
09 10.08
10 10.08
11 10.08
12 10.08
13 10.08
14 10.08
15 10.08
16 10.08
17 10.08
18 10.08
19 10.08
20 10.08
21 10.08
22 10.08
23 10.08
00 11.08
01 11.08
02 11.08
03 11.08
04 11.08
05 11.08
06 11.08
07 11.08
08 11.08
09 11.08
10 11.08
11 11.08
12 11.08
13 11.08
14 11.08
15 11.08
16 11.08
17 11.08
18 11.08
19 11.08
20 11.08
21 11.08
22 11.08
23 11.08
00 12.08
01 12.08
02 12.08
03 12.08
04 12.08
05 12.08
06 12.08
07 12.08
08 12.08
09 12.08
10 12.08
11 12.08
12 12.08
13 12.08
14 12.08
15 12.08
16 12.08
17 12.08
18 12.08
19 12.08
20 12.08
21 12.08
22 12.08
23 12.08
00 13.08
01 13.08
02 13.08
03 13.08
04 13.08
05 13.08
06 13.08
07 13.08
08 13.08
09 13.08
10 13.08
11 13.08
12 13.08
13 13.08
14 13.08
15 13.08
16 13.08
17 13.08
18 13.08
19 13.08
20 13.08
21 13.08
22 13.08
23 13.08
00 14.08
01 14.08
02 14.08
Ветер
(напр.,м/с)
Видим. Явления Облачность Т
(С)
Тd
(С)
f
(%)
Тe
(С)
Тes
(С)
Комфортность P
(гПа)
Po
(гПа)
Тmin
(С)
Tmax
(С)
R
(мм)
R24
(мм)
S
(см)
СВ 4 30 км ясно +20.2 +11.3 57 +22 +22 комфорт 1019.9 976.6
СВ 4 30 км ясно +20.5 +11.4 56 +22 +23 комфорт 1020.0 976.8
СВ 4
{5}
35 км 1/0
[Ci fib]
+21.5 +11.5 53 +24 +25 комфорт 1020.2 977.1 +20.2
СВ 4 35 км 1/0
[]
+23.4 +12.1 49 +26 +29 жарко 1020.2 977.4
СВ 4 35 км 1/0
[]
+25.2 +13.1 47 +27 +32 жарко 1020.0 977.5
В 3
{7}
35 км 1/0
[Ci fib]
+27.1 +13.8 44 +29 +37 жарко 1019.8 977.5
В 4 35 км 1/0
[]
+28.7 +13.8 40 +31 +39 жарко 1019.2 977.2
В 4 35 км 1/1 1500 м
[Cu hum]
+29.5 +13.3 37 +31 +40 жарко 1018.8 976.9
нст 3
{7}
35 км 1/1 1500 м
[Cu hum Ci fib]
+30.6 +13.0 34 +32 +43 жарко 1018.3 976.6
В 4 30 км 1/1 1500 м
[Cu hum]
+31.7 +13.1 32 +33 +41 жарко 1017.9 976.3
ЮВ 3 30 км 1/1 1500 м
[Cu hum]
+31.7 +12.6 31 +32 +41 жарко 1017.5 975.9
ЮВ 4
{8}
30 км 1/1 2000 м
[Cu hum Ci fib]
+32.5 +11.7 28 +33 +37 жарко 1016.9 975.5
30 км 1/1 1500 м
[Cu hum]
+32.5 +12.3 29 1016.7 975.3
В 2 30 км 1/1 1500 м
[Cu hum]
+32.4 +11.6 28 +32 +34 жарко 1016.5 975.1
ЮВ 2
{8}
30 км 1/1 1500 м
[Cu hum Ac trans]
+31.6 +12.5 31 +32 +33 жарко 1016.6 975.1 +33.2
ЮВ 2 30 км ясно +29.8 +12.8 35 +31 +31 жарко 1016.9 975.1
В 2 30 км ясно +27.2 +13.9 44 +29 +29 жарко 1017.8 975.6
В 2 30 км ясно +26.3 +13.8 46 +28 +28 жарко 1018.1 975.8
СВ 2 30 км ясно +25.2 +13.7 49 +27 +27 жарко 1018.5 976.0
СВ 2 30 км ясно +25.8 +13.6 47 +28 +28 жарко 1018.5 976.1
СВ 2
{4}
50 км ясно +25.6 +13.8 48 +28 +28 жарко 1018.5 976.1
СВ 3 45 км ясно +24.5 +13.7 51 +27 +27 жарко 1018.6 976.0
СВ 3 50 км ясно +23.9 +13.4 52 +26 +26 жарко 1018.7 976.0
СВ 4 30 км ясно +23.6 +13.1 52 +26 +26 жарко 1018.8 976.1
СВ 3 30 км ясно +22.9 +13.1 54 +26 +26 жарко 1019.0 976.2
СВ 3 30 км ясно +22.4 +12.9 55 +25 +25 комфорт 1019.5 976.6
СВ 3
{5}
35 км ясно +23.2 +13.3 54 +26 +28 жарко 1019.7 976.9 +22.4
СВ 3 35 км ясно +26.1 +14.2 48 +28 +32 жарко 1019.6 977.2
В 2 35 км ясно +26.7 +15.4 50 +30 +37 душно 1019.5 977.2
ЮВ 3 35 км ясно +28.9 +16.2 46 +32 +41 душно 1019.0 977.1
35 км ясно +30.3 +16.4 43 1018.5 976.8
ЮВ 3 35 км ясно +32.1 +16.1 38 +35 +47 очень
душно
1018.0 976.5
нст 3
{9}
35 км 1/1 1500 м
[Cu hum]
+32.9 +14.6 33 +34 +46 очень
жарко
1017.8 976.4
В 3 30 км 3/3 2000 м
[Cu hum]
+33.1 +14.3 32 +34 +42 очень
жарко
1017.3 976.0
30 км 3/3 2000 м
[Cu hum]
+33.5 +13.7 30 1017.1 975.8
ЮЗ 2
{7}
30 км 3/3 2000 м
[Cu hum]
+32.7 +11.9 28 +33 +38 жарко 1016.9 975.5
ЮЗ 3 30 км 1/1 2000 м
[Cu hum]
+33.0 +12.7 29 +33 +37 жарко 1016.5 975.2
СЗ 2 30 км 1/1 2000 м
[Cu hum]
+34.1 +12.6 27 +34 +36 очень
жарко
1016.0 974.8
В 2
{7}
30 км 1/1 2000 м
[Cu hum]
+33.5 +12.6 28 +34 +34 очень
жарко
1015.9 974.6 +34.8
В 1 30 км 1/1 1500 м
[Cu med, cong]
+30.9 +13.7 35 +32 +32 жарко 1016.2 974.6
30 км ясно +29.4 +13.7 38 1016.8 975.0
Ю 3 30 км ясно +28.7 +12.6 37 +30 +30 жарко 1016.9 975.0
Ю 2 30 км ясно +27.7 +12.9 40 +29 +29 жарко 1017.0 974.9
Ю 2 30 км ясно +26.9 +12.9 42 +29 +29 жарко 1017.2 975.0
нст 1
{4}
40 км ясно +23.9 +14.0 54 +26 +26 жарко 1017.4 974.8
СВ 1 45 км ясно +24.8 +13.4 49 +27 +27 жарко 1017.3 974.8
СВ 2 30 км ясно +25.0 +13.2 48 +27 +27 жарко 1017.2 974.8
СВ 3
{3}
30 км 3/0
[Ac trans]
+24.5 +13.4 50 +27 +27 жарко 1017.4 974.9
СВ 2 30 км 3/0
[]
+23.6 +13.4 53 +26 +26 жарко 1017.4 974.8
СВ 3 30 км 3/0
[]
+24.2 +13.4 51 +26 +27 жарко 1017.5 974.9
СВ 2
{4}
35 км 3/0
[Ac cast]
+23.8 +13.9 54 +26 +27 жарко 1017.7 975.1 +22.8
30 км 1/0
[]
+23.8 +15.0 58 1017.8 975.2
Ю 2 35 км 1/0
[]
+27.7 +13.3 41 +29 +36 жарко 1017.4 975.3
В 2
{4}
35 км 1/0
[Ci fib]
+29.7 +13.1 36 +31 +41 жарко 1017.1 975.3
СВ 1 35 км 1/0
[]
+31.2 +13.6 34 +32 +47 жарко 1016.6 975.0
35 км 1/0
[]
+32.9 +13.1 30 1015.8 974.5
ЮВ 5
{7}
35 км 1/1 1500 м
[Cu hum Ci fib]
+33.4 +11.4 26 +33 +40 жарко 1015.1 973.8
30 км 1/1 2000 м
[Cu med, cong]
+34.1 +11.4 25 1014.6 973.5
Ю 4 30 км 1/1 2000 м
[Cu med, cong]
+34.5 +11.1 24 +34 +41 очень
жарко
1014.1 973.0
ЮВ 2
{8}
25 км 3/1 2000 м
[Cu med, cong Ac trans Ci fib]
+34.0 +11.3 25 +34 +40 очень
жарко
1013.6 972.5
В 2 30 км 4/1 2000 м
[Cu med, cong]
+34.4 +11.0 24 +34 +37 очень
жарко
1013.3 972.2
СВ 9 25 км 5/4 2000 м
[Cu med, cong]
+30.5 +14.2 37 +32 +32 жарко 1013.5 972.0
В 4
{11}
25 км 3/1 2000 м
[Cu hum Ci ing]
+30.1 +14.7 39 +32 +32 жарко 1013.5 971.9 +35.6
СВ 6 25 км 5/0
[]
+28.4 +14.3 42 +31 +31 душно 1013.9 972.1
СВ 6 30 км 3/1 1500 м
[Cu hum]
+26.9 +14.3 46 +29 +29 жарко 1014.3 972.3
СВ 6
{10}
30 км 4/0
[Ac trans Ci fib]
+25.5 +14.6 51 +28 +28 жарко 1014.9 972.6
СВ 5 30 км 6/0
[]
+25.4 +13.9 49 +28 +28 жарко 1014.9 972.6
СВ 7 30 км 9/0
[]
+25.3 +14.4 51 +28 +28 жарко 1015.2 972.9
С 4
{10}
30 км зарница 6/0
[Ac trans]
+24.0 +14.7 56 +27 +27 жарко 1016.0 973.5
СВ 4 45 км 10/10
[]
+23.7 +14.6 57 +26 +26 жарко 1015.2 972.7
СВ 2 50 км 10/10
[]
+22.1 +14.9 64 +26 +26 душно 1014.9 972.2
В 3
{6}
30 км 9/0
[Ac trans]
+21.8 +14.6 64 +25 +25 комфорт 1014.1 971.4
СВ 4 30 км 8/0
[]
+23.6 +14.0 55 +26 +26 жарко 1013.7 971.2
СВ 5 30 км 6/0
[]
+23.7 +14.4 56 +26 +26 жарко 1014.0 971.5
СВ 6
{8}
35 км 4/0
[Ac cast Ci fib]
+22.6 +14.6 61 +26 +27 жарко 1014.3 971.7 +21.8
СВ 6 35 км 4/0
[]
+24.5 +14.6 54 +27 +28 жарко 1014.1 971.7
В 4 35 км 5/0
[]
+25.0 +15.3 55 +28 +31 жарко 1014.3 972.0
В 4
{7}
35 км 3/0
[Ci fib]
+28.1 +15.4 46 +31 +37 душно 1013.7 971.9
В 3 35 км 3/0
[]
+29.3 +14.4 40 +31 +41 жарко 1013.7 972.0
В 4 35 км 1/0
[]
+30.8 +14.9 38 +33 +42 душно 1013.2 971.7
ЮВ 4
{7}
35 км 1/0
[Ci fib]
+32.7 +13.5 31 +34 +43 очень
жарко
1012.6 971.4
30 км 4/1 1500 м
[Cu Sc]
+33.1 +12.8 29 1012.1 970.9
нст 3
{7}
30 км 4/1 1500 м
[Cu Sc]
+34.1 +13.1 28 +35 +41 очень
жарко
1011.5 970.5
В 3
{7}
30 км 5/1 1500 м
[Cb calv Ac trans Ci fib]
+33.7 +12.8 28 +34 +38 очень
жарко
1011.2 970.2
СВ 3 30 км 9/1 1500 м
[Cb calv]
+33.2 +13.4 30 +34 +36 очень
жарко
1011.1 970.0
В 3 30 км 9/1 1500 м
[Cu Sc]
+32.5 +12.8 30 +33 +34 жарко 1011.1 969.9
СВ 5
{9}
30 км 9/1 1500 м
[Cu Sc Ac trans Ci fib]
+29.7 +14.3 39 +32 +32 душно 1011.8 970.2 +34.3
СВ 4 30 км 9/1 1500 м
[Cu Sc]
+28.9 +14.0 40 +31 +31 жарко 1012.2 970.5
СВ 4 30 км 9/1 1500 м
[Cu med, cong]
+27.8 +14.1 43 +30 +30 жарко 1012.8 970.9
СВ 4
{7}
30 км 8/0
[Cs]
+27.9 +13.8 42 +30 +30 жарко 1012.9 971.0
СВ 3 30 км 8/0
[]
+27.0 +14.1 45 +29 +29 жарко 1013.5 971.5
СВ 4 30 км 8/0
[]
+27.0 +14.4 46 +29 +29 жарко 1013.6 971.6
СВ 5
{7}
30 км 9/0
[Ac trans]
+26.7 +14.8 48 +29 +29 жарко 1013.3 971.3
СВ 4 30 км 10/10
[]
+26.1 +14.9 50 +29 +29 жарко 1013.2 971.1
СВ 3 40 км 8/5
[]
+24.9 +14.9 54 +28 +28 жарко 1013.5 971.2
СВ 4
{6}
30 км 9/0
[Ac trans]
+24.5 +15.1 56 +27 +27 жарко 1013.3 971.0
СВ 4 30 км 9/9
[Sc]
+23.9 +15.6 60 +27 +27 жарко 1013.4 971.0
СВ 4 30 км 9/0
[]
+23.4 +16.2 64 +28 +28 душно 1013.9 971.4
В 3
{6}
28 км 8/0
[Ac trans Ci fib]
+22.8 +16.3 67 +27 +28 душно 1014.1 971.5 +22.6
ЮВ 2 28 км 5/0
[]
+24.0 +16.2 62 +27 +30 жарко 1014.4 972.0
В 4 28 км 5/0
[]
+25.1 +16.5 59 +29 +32 душно 1014.6 972.3
СВ 2
{6}
25 км 4/1 1500 м
[Cu hum Ac trans Ci fib]
+27.6 +16.3 50 +31 +39 душно 1014.3 972.4
Ю 3 25 км 5/0
[]
+29.3 +15.5 43 +32 +41 душно 1014.4 972.7
ЮВ 3 25 км 4/0
[]
+30.8 +14.5 37 +33 +43 душно 1013.9 972.4
ЮВ 5
{7}
25 км 3/1 2000 м
[Cu hum Ac trans Ci fib]
+31.7 +14.5 35 +33 +40 жарко 1013.6 972.2
ЮВ 4 30 км 1/1 1500 м
[Cu Sc]
+33.7 +14.4 31 +35 +43 очень
жарко
1013.0 971.9
ЮЗ 3 30 км 1/1 1500 м
[]
+32.4 +14.2 33 +34 +42 очень
жарко
1012.6 971.4
нст 4
{8}
30 км 1/1 1500 м
[Cb cap Ci ing]
+34.3 +12.7 27 +35 +39 очень
жарко
1011.8 970.8
З 3 30 км 1/1 1500 м
[]
+34.1 +13.7 29 +35 +38 очень
жарко
1011.4 970.4
З 5 30 км 1/1 1500 м
[Cu Sc]
+33.4 +13.6 30 +34 +35 очень
жарко
1011.5 970.4
З 3
{8}
30 км 1/1 1500 м
[Cu Sc Ci fib]
+33.4 +13.6 30 +34 +34 очень
жарко
1011.6 970.5 +34.9
ЮВ 3 30 км 1/1 1500 м
[]
+30.1 +15.5 41 +33 +33 душно 1012.6 971.1
Ю 2 30 км 6/1 1500 м
[]
+28.4 +15.4 45 +31 +31 душно 1013.4 971.6
СВ 6
{9}
30 км зарница 4/4
[Sc]
+25.2 +16.3 58 +29 +29 душно 1014.7 972.4
В 4 30 км ясно +24.2 +16.7 63 +28 +28 душно 1014.6 972.2
СВ 5 30 км ясно +22.7 +16.4 68 +27 +27 душно 1014.7 972.1
В 2
{9}
30 км ясно +22.1 +16.3 70 +26 +26 душно 1014.6 971.9
СВ 3 35 км ясно +21.6 +16.0 70 +25 +25 комфорт 1014.8 972.0
СВ 2 40 км ясно +21.9 +15.7 68 +26 +26 душно 1014.9 972.2
ЮВ 3 30 км ясно +21.8 +16.0 70 +26 +26 душно 1014.3 971.6
ЮВ 1 30 км 1/0
[]
+20.3 +16.0 76 +24 +24 комфорт 1014.5 971.6
30 км 3/0
[]
+19.3 +15.8 80 1015.0 971.9
С 2
{5}
30 км 1/0
[Ci sp]
+21.2 +16.1 73 +25 +26 комфорт 1014.6 971.8 +19.3
СВ 4 30 км 1/0
[]
+23.2 +16.4 66 +28 +30 душно 1014.5 972.0
СВ 4 30 км 1/0
[]
+24.8 +16.7 61 +28 +33 жарко 1014.2 971.9
В 4
{6}
25 км 3/0
[Ac cast Cc]
+26.3 +17.1 57 +30 +36 душно 1014.1 972.0
В 3 25 км 9/0
[]
+26.8 +17.0 55 +31 +36 душно 1014.1 972.1
СВ 3 25 км 10/0
[]
+28.5 +17.1 50 +32 +39 душно 1013.7 971.9
нст 2
{6}
30 км 6/1 1500 м
[Cu med, cong Ac As Ci fib]
+29.7 +16.9 46 +33 +43 душно 1013.0 971.4
30 км 1/1 1500 м
[]
+31.6 +16.5 40 1012.2 970.9
ЮЗ 4 30 км 1/1 1500 м
[]
+32.4 +15.1 35 +34 +41 очень
жарко
1011.5 970.3
ЮЗ 4
{7}
30 км 1/1 1500 м
[Cb cap Ci fib]
+33.4 +15.1 33 +35 +40 душно 1010.9 969.9
ЮВ 3
{11}
27 км 4/4 1500 м
[Cb cap Ci ing]
+30.5 +16.2 42 +34 +36 очень
душно
1010.8 969.4
В 3 30 км 4/1 1500 м
[]
+30.5 +16.2 42 +34 +35 очень
душно
1010.9 969.5
В 4
{15}
30 км 8/4 1500 м
[Cb cap Ac trans Ci ing]
+28.7 +16.3 47 +32 +32 душно 1011.4 969.8 +34.2
СВ 5 30 км 8/3 1500 м
[]
+26.2 +17.5 59 +30 +30 душно 1012.4 970.4
СВ 6 20 км 8/4 2000 м
[]
+24.0 +17.2 66 +28 +28 душно 1013.3 971.0
В 3
{10}
12 км гроза, ливневой дождь 9/6 270 м
[Cb cap]
+23.9 +16.6 64 +27 +27 жарко 1014.3 971.9
В 2 30 км в посл. час гроза 9/0
[]
+21.5 +17.6 78 +26 +26 душно 1013.8 971.1
СВ 3 35 км 6/0
[]
+21.8 +16.9 74 +26 +26 душно 1012.9 970.3
В 4
{10}
35 км {гроза, ливн. дождь} 5/0
[Ac trans Ci fib]
+20.7 +16.4 76 +24 +24 комфорт 1012.2 969.4 0.1 0.1
СВ 3 45 км 1/1
[]
+20.8 +16.3 75 +25 +25 комфорт 1012.1 969.3
СВ 4 30 км 10/10
[]
+21.0 +16.1 74 +25 +25 комфорт 1011.9 969.2
СВ 3
{5}
25 км 9/0
[Ac trans]
+20.4 +16.1 76 +24 +24 комфорт 1012.1 969.3
30 км 8/0
[]
+20.0 +16.1 78 1012.3 969.4
В 2 30 км 9/0
[]
+20.2 +15.9 76 +24 +24 комфорт 1012.2 969.3
СВ 3
{5}
20 км 9/0
[Ac As Ci sp]
+20.9 +16.6 76 +25 +26 комфорт 1012.2 969.5 +19.6 0.1
ЮВ 2 20 км 9/1 1500 м
[Cu hum]
+21.1 +16.6 75 +25 +26 комфорт 1012.8 970.1
Ю 2 25 км 9/1 1500 м
[Cu hum]
+22.3 +16.5 70 +27 +30 душно 1012.9 970.3
ЮЗ 2
{5}
25 км 9/0
[Ac As Ci sp]
+22.5 +16.9 71 +27 +33 душно 1012.8 970.3
Ю 3 25 км 10/0
[]
+23.3 +17.5 70 +29 +35 душно 1013.1 970.7
Ю 5 25 км 8/0
[]
+26.0 +18.1 62 +31 +36 очень
душно
1012.8 970.8
ЮЗ 5
{8}
30 км 9/1 1020 м
[Cu Sc Ac trans Ci fib]
+27.4 +16.1 50 +31 +34 душно 1012.7 970.8
ЮЗ 5 35 км 9/1 1000 м
[Cu hum]
+28.4 +14.3 42 +31 +34 душно 1012.6 970.8
З 5 30 км 9/0
[]
+27.7 +13.3 41 +29 +34 жарко 1012.7 970.8
ЮЗ 4
{9}
35 км 9/1 1500 м
[Cu hum Ac trans Cs]
+28.8 +14.3 41 +31 +33 жарко 1012.3 970.6
ЮЗ 5 35 км 6/1 1500 м
[Cu hum]
+29.0 +13.7 39 +31 +32 жарко 1011.6 969.9
ЮЗ 5 35 км 5/1 1500 м
[Cu hum]
+29.0 +12.5 36 +30 +31 жарко 1011.5 969.8
СЗ 2
{9}
35 км 4/1 1500 м
[Cu hum Ci sp]
+28.5 +12.8 38 +30 +30 жарко 1011.6 969.9 +30.4
СЗ 3 35 км 3/1 2000 м
[Sc]
+26.8 +13.2 43 +29 +29 жарко 1012.0 970.0
СЗ 3 40 км 4/1 1500 м
[Sc]
+24.7 +12.6 47 +27 +27 жарко 1012.6 970.3
З 3
{7}
40 км 1/0
[Ci fib]
+23.2 +13.1 53 +26 +26 жарко 1012.6 970.1
З 2 40 км 1/0
[]
+22.4 +13.4 57 +25 +25 комфорт 1013.7 971.0
З 4 40 км 5/0
[]
+22.2 +13.2 57 +25 +25 комфорт 1013.9 971.2
З 4
{7}
40 км 4/1 2000 м
[Sc Ac trans]
+22.0 +12.8 56 +25 +25 комфорт 1013.7 971.0
З 3 50 км ясно +21.0 +12.6 59 +24 +24 комфорт 1013.4 970.5
З 2 50 км 10/10
[]
+20.5 +13.1 62 +23 +23 комфорт 1013.3 970.4
Местоположение метеостанции Люксембург (Люксембург): широта 49.62 долгота 6.20 высота над уровнем моря 376 м.
В архиве по умолчанию представлена погода в Люксембурге за последнюю неделю. Архивные данные за месяц целиком и за предыдущие месяцы, начиная с января 2011 года, Вы можете получить, выбрав интересующий диапазон дат из раскрывающегося списка и нажав кнопку "Найти!".
*Определитесь, кто Вы:
Внимание! Время в таблицах - всемирное. Для получения местного времени необходимо прибавить поправку, которая равна 1 ч.
Смотрите также архив погоды в соседних городах и на ближайших метеорологических станциях:
Партнеры нашего сайта:      
Пояснения к столбцам:
  • Ветер - указаны скорость ветра в м/с - средняя за 10 мин, порывы в срок и между сроками (в фигурных скобках) и направление, откуда дует ветер: С - северный,
  • СВ - северо-восточный, В - восточный, ЮВ - юго-восточный, Ю - южный, ЮЗ - юго-западный, З - западный, СЗ - северо-западный.
  • Видимость - горизонтальная дальность видимости в метрах или километрах. При видимости от 1 до 10 км при отсутствии осадков обычно наблюдается дымка, при ухудшении видимости до 1 км и менее - туман. В сухую погоду видимость может ухудшаться дымом, пылью или мглою.
  • Явления - указаны атмосферные явления, наблюдавшиеся в срок или в последний час перед сроком; фигурными скобками обозначены явления, наблюдавшиеся между сроками (за 1-3 часа до срока); квадратными скобками обозначены град или гололедные отложения с указанием их диаметра в мм.
  • Облачность - указаны через наклонную черту общая и нижняя облачность в баллах и высота нижней границы облаков в метрах; квадратными скобками обозначены формы облаков: Ci - перистые, Cs - перисто-слоистые, Cc - перисто-кучевые, Ac - высококучевые, As - высокослоистые, Sc - слоисто-кучевые, Ns - слоисто-дождевые, Cu - кучевые, Cb - кучево-дождевые. Подробнее классификацию облаков см. в Атласе облаков (PDF).
  • T - Температура воздуха - температура, измеренная на высоте 2 м над землей.
  • Td - Температура точки росы - температура, при понижении до которой содержащийся в воздухе водяной пар достигнет насыщения.
  • f - Относительная влажность воздуха - влажноcть воздуха, измеренная на высоте 2 м над землей.
  • Te - Эффективная температура - температура, которую ощущает одетый по сезону человек в тени. Характеристика душности погоды. При расчете учитывается влияние влажности воздуха и скорости ветра на теплоощущения человека.
  • Tes - Эффективная температура на солнце - температура, которую ощущает человек, с поправкой на солнечный нагрев. Характеристика знойности погоды. Зависит от высоты солнца над горизонтом, облачности и скорости ветра. Ночью, в пасмурную погоду, а также при ветре 12 м/с и более поправка равна нулю.
  • P - Атмосферное давление - приведенное к уровню моря атмосферное давление.
  • Po - Атмосферное давление - измеренное на уровне метеостанции атмосферное давление.
  • Tmin - Минимальная температура - минимум температуры воздуха на высоте 2 м над землей.
  • Tmax - Максимальная температура - максимум температуры воздуха на высоте 2 м над землей.
  • R - Количество осадков - Количество выпавших осадков за период времени, мм. При наведении курсора мыши на число - период времени, за который выпало указанное количество осадков.
  • R24 - Количество осадков - Количество выпавших осадков за 24 часа, мм.
  • S - Снежный покров - Высота снежного покрова, см. При наведении курсора мыши на число - состояние снежного покрова и степень покрытия местности в баллах.